Location: Lafig�re
(44.4503°N, 4.0357°E)
Time: 23:58:57
(UTC+00:00)

ARGOS - Pass Details

Date: 24 January 2021
Orbit: 821 x 834 km, 98.4° (Epoch: 03 March)

Event Time Altitude Azimuth Distance (km) Brightness Sun altitude
Rises 17:55:28 0° 140° (SE) 3,343 6.0 -13.1°
Reaches altitude 10° 17:57:58 10° 131° (SE) 2,416 5.2 -13.5°
Maximum altitude 18:02:48 36° 67° (ENE) 1,285 3.6 -14.4°
Drops below altitude 10° 18:07:40 10° 2° (N) 2,437 5.5 -15.2°
Sets 18:10:11 0° 354° (N) 3,376 6.3 -15.6°
